Terminal Aerodrome Forecast
Issued by NWS Charleston, WV

Current Version | Previous Version | Graphics & Text | Print | Product List | Glossary On
Versions: 1 2 3 4 5 6 7 8 9 10 11 12 13 14 15 16 17 18 19 20 21 22
000
FTUS41 KRLX 151504 AAA
TAFBKW
TAF AMD
KBKW 151504Z 1515/1612 27007KT P6SM OVC018
     FM151800 28009G18KT P6SM OVC025
     FM152100 28011G18KT P6SM SCT035
     FM160200 29014G23KT P6SM BKN035
     FM160400 29014G23KT P6SM SCT025
     FM161100 27008KT P6SM SCT110=

USA.gov is the U.S. government's official web portal to all federal, state and local government web resources and services.